sat.trackr.live / text

‹ back to catalog

STARLINK-34914

NORAD 65203 · 2025-176F

PAYLOAD ACTIVE UNKNOWN

§ Identity

Operator
Country
US
Launch date
2025-08-14
Launch site
AFETR
Launch vehicle
Mass (kg)
RCS (m²)

Purposes: comms

External: N2YO · Heavens-Above · Gunter

§ Orbital elements

Epoch: 2026-05-25T01:23:40.884576Z

Period
93.85 min
Inclination
53.1569°
Eccentricity
0.0001142
Mean motion
15.34411650 rev/d
Perigee alt
461.9 km
Apogee alt
463.4 km
Semi-major
6,840.8 km
B*
8.9307e-4
RAAN
157.2370°
Arg perigee
91.5156°
Mean anomaly
268.5978°
Rev number
4,482

§ Raw data

STARLINK-349141 65203U 25176F   26145.05811209  .00029929  00000+0  89307-3 0  99912 65203  53.1569 157.2370 0001142  91.5156 268.5978 15.34411650 44820

JSON: /api/v1/satellites/65203 · /tle

For live sub-satellite position, see the globe view (requires WebGL).

§ Visibility from observer

Set your observer location to see the next 7 days of passes ≥ 10°. The values pass through the URL so the page stays shareable.

No JS? Fill the form by hand. The geolocation button needs JavaScript.